This demonstration page uses our WeatherBlox Daily Observations layout. Learn more.

Left ArrowRight Arrow

41.55636, -103.73856

Hourly Observations for October 5, 2018

Temp ( °F °C ) Dew Point ( °F °C ) Humidity (%) Winds ( mph kmh ) Pressure ( in mb ) Visibility ( mi km ) Precip ( " mm )
12:58 am 00:58 Clear 40 4.6 37 2.8 88 88 WSW 7 11 29.89 1012 10 16 N/A
1:58 am 01:58 Clear 42 5.7 38 3.1 84 84 W 13 20 29.86 1011 10 16 N/A
2:58 am 02:58 Clear 42 5.5 37 2.7 82 82 W 6 9 29.84 1011 10 16 N/A
3:58 am 03:58 Clear 41 5.2 36 2.4 82 82 SW 5 7 29.86 1011 10 16 N/A
4:58 am 04:58 Clear 43 6 38 3.1 82 82 WSW 7 11 29.85 1011 10 16 N/A
5:58 am 05:58 Clear 45 7.4 38 3.1 74 74 SW 9 15 29.83 1010 10 16 N/A
6:58 am 06:58 Cloudy 46 7.8 40 4.3 79 79 SW 8 13 29.88 1012 10 16 N/A
7:58 am 07:58 Cloudy 51 10.3 42 5.5 72 72 W 8 13 29.83 1010 10 16 N/A
8:58 am 08:58 Mostly Cloudy 56 13.3 43 6.1 62 62 W 12 19 29.77 1008 10 16 N/A
9:58 am 09:58 Mostly Cloudy 59 15.2 42 5.3 52 52 N 16 26 29.74 1007 10 16 N/A
10:58 am 10:58 Mostly Cloudy 47 8.3 41 5 80 80 NNE 18 30 29.91 1013 10 16 N/A
11:58 am 11:58 Partly Cloudy 47 8.3 40 4.4 77 77 N 25 41 29.96 1015 10 16 N/A
12:58 pm 12:58 Windy with Rain Showers Likely 44 6.8 38 3.5 80 80 N 25 41 29.98 1015 10 16 N/A
1:59 pm 13:59 Cloudy 45 7 38 3.1 76 76 N 24 39 30.00 1016 10 16 N/A
2:58 pm 14:58 Mostly Cloudy 44 6.7 35 1.7 71 71 N 26 43 30.00 1016 10 16 N/A
3:58 pm 15:58 Mostly Cloudy 42 5.3 35 1.6 77 77 N 20 31 30.06 1018 10 16 N/A
5:58 pm 17:58 Windy with Rain Showers Likely 41 5.2 35 1.4 77 77 N 21 33 30.07 1018 10 16 N/A
7:58 pm 19:58 Mostly Cloudy 40 4.5 33 0.5 76 76 N 10 17 30.11 1020 10 16 N/A
8:58 pm 20:58 Mostly Cloudy 38 3.4 33 0.4 81 81 N 5 7 30.14 1021 10 16 N/A
9:58 pm 21:58 Clear 33 0.6 30 -0.9 90 90 N 9 15 30.12 1020 10 16 N/A
10:58 pm 22:58 Mostly Clear 33 0.7 31 -0.5 92 92 NNW 7 11 30.17 1022 10 16 N/A
11:58 pm 23:58 Clear 31 -0.7 29 -1.5 94 94 NNW 8 13 30.18 1022 10 16 N/A

Powered by AerisWeather